Wind_Speed
21 20 19 18 17 16 16 16 17 15 14 13 12 10 10 11 14 14 14 13 12 12 12 13 15 15 12 10 10 8 8 9 7 7 11 11 10 10 9 8 8 6 6 6 6 5 4 3 3 2 3 1 1 2 5 6 7 6 5 5 6 6 4 3 1 4 5 2 6 7 5 4 4 5 5 4 3 6 10 9 6 5 7 8 3 2 4
20 19 18 17 16 16 15 14 15 15 14 13 12 10 10 13 17 16 16 16 15 14 14 13 14 14 13 13 12 9 8 7 6 7 11 11 11 11 11 10 9 7 6 7 7 6 5 5 4 4 4 2 1 1 3 5 5 5 4 5 6 5 3 2 4 1 3 4 4 4 1 1 2 6 6 2 1 3 7 7 6 6 7 8 5 2 4
19 18 17 16 15 15 14 12 13 13 13 13 12 11 10 13 18 18 18 18 18 16 16 16 15 15 15 15 13 10 9 8 7 8 11 13 13 13 13 12 11 8 7 8 8 6 5 4 4 5 5 4 2 2 2 3 3 4 5 5 6 5 4 2 4 5 4 5 4 2 2 4 7 8 8 5 4 2 4 5 6 6 6 8 8 4 4
18 17 16 16 15 15 13 12 11 12 13 13 12 12 10 12 16 19 19 20 20 19 19 18 18 17 16 15 13 12 12 10 8 9 12 14 14 13 13 13 12 10 10 9 8 7 7 5 5 5 6 5 4 4 5 5 4 5 5 5 5 5 5 5 2 5 9 11 6 2 5 6 7 8 9 8 7 6 3 5 6 6 6 10 11 9 9
17 17 16 16 16 15 14 12 11 11 12 13 13 12 11 11 14 18 19 19 20 21 21 20 19 19 17 15 14 13 12 11 9 9 10 11 13 14 14 13 12 12 12 11 9 8 8 7 6 7 7 7 7 7 7 7 7 7 6 5 5 3 3 5 4 3 6 9 8 2 2 4 6 7 9 9 10 11 5 3 5 7 8 8 9 9 9
17 17 16 16 16 15 14 13 11 11 11 12 13 12 12 12 13 17 20 19 17 19 22 22 21 20 19 17 16 15 13 11 9 9 8 9 11 13 15 14 13 12 12 12 11 9 9 9 9 9 11 11 11 10 9 9 10 9 6 3 3 1 1 4 3 3 3 6 7 5 3 3 6 8 9 11 12 15 12 7 4 5 8 8 8 8 6
17 17 17 16 15 16 15 14 12 11 11 11 12 12 12 13 13 16 20 22 20 18 20 21 22 21 20 18 17 17 15 12 10 9 9 9 11 14 15 14 13 13 14 14 13 11 10 10 10 12 13 14 13 11 11 10 9 10 7 4 3 3 2 0 2 0 3 6 8 7 8 8 10 12 13 14 15 16 16 13 8 4 7 9 8 6 6
17 17 17 16 15 15 15 14 14 12 11 11 11 12 13 13 14 15 18 21 23 22 20 20 21 21 20 18 17 18 17 15 11 9 9 9 11 14 15 14 13 14 14 14 14 13 11 11 12 13 13 13 13 11 10 7 5 5 6 6 6 5 4 3 1 1 2 4 7 9 9 10 13 16 16 16 16 15 15 15 10 3 2 5 3 4 6
17 17 17 17 16 15 15 15 14 13 12 11 11 12 12 13 14 16 17 18 22 24 23 22 22 21 20 20 19 18 17 15 13 11 9 10 11 12 14 15 14 14 14 14 13 12 11 11 12 13 13 13 13 11 8 4 3 4 4 5 5 6 6 6 4 2 3 3 5 7 9 10 12 15 17 17 16 13 12 14 10 2 1 2 1 2 2
18 17 17 17 16 16 15 15 15 14 13 12 12 12 12 13 14 15 16 17 19 21 23 24 24 22 21 20 19 19 17 15 14 12 10 11 12 11 14 16 16 15 15 13 11 9 10 12 12 12 13 12 10 9 6 3 3 3 4 4 4 5 6 6 5 4 4 3 4 6 8 8 9 12 16 16 14 10 10 13 11 4 1 3 3 5 4
20 19 18 17 17 16 15 16 15 15 14 13 12 12 12 13 14 14 15 16 17 18 20 22 24 24 23 22 21 20 18 15 14 14 11 11 13 13 15 16 17 16 13 9 8 9 11 12 11 11 11 9 8 7 5 5 5 4 3 5 4 3 4 5 5 4 4 4 5 7 6 5 6 8 11 13 12 10 9 11 10 5 1 3 6 8 5
21 20 18 18 17 17 16 16 16 15 15 14 13 13 13 13 14 14 15 15 15 16 18 19 21 23 24 25 24 23 20 17 16 15 12 10 13 14 15 17 18 16 12 9 10 11 11 11 10 10 10 9 9 8 7 7 8 7 5 6 6 5 5 5 4 4 4 5 4 4 3 5 7 6 7 10 11 10 9 8 6 5 4 5 7 9 7
22 21 20 19 18 17 16 16 16 16 16 15 14 13 13 13 13 14 15 15 14 15 16 17 18 21 22 24 26 25 24 21 19 17 14 11 13 15 16 18 18 15 13 12 11 10 10 11 11 11 11 11 11 12 12 12 12 11 9 7 7 7 6 6 5 5 5 5 4 3 4 7 9 9 9 9 9 10 9 6 5 4 6 8 8 8 8
22 22 21 20 19 18 17 16 16 16 16 16 15 14 13 14 14 14 14 15 15 14 15 16 17 18 18 20 24 25 25 24 22 20 18 15 14 16 17 18 17 16 14 12 11 9 9 10 11 12 13 13 13 13 13 13 13 13 10 7 7 7 8 7 6 6 6 6 6 7 8 9 11 12 12 10 11 12 11 8 7 5 5 8 9 8 8
22 22 21 20 19 18 17 16 16 16 17 17 16 15 14 14 15 15 14 15 15 14 15 15 15 16 17 17 20 22 23 25 24 21 18 16 15 18 20 19 18 17 14 12 12 11 9 9 11 11 10 10 10 9 9 10 12 13 14 12 11 10 10 9 8 8 8 7 6 5 4 5 7 10 11 10 10 12 12 10 10 7 5 5 7 7 8
22 22 21 20 19 18 17 16 16 16 17 18 17 16 15 15 15 15 15 15 15 13 14 15 14 14 14 15 17 18 19 21 23 21 18 16 15 18 22 21 19 18 15 13 13 12 10 10 10 10 10 9 8 6 5 7 9 11 14 15 14 12 12 13 12 10 10 9 7 4 3 4 6 7 8 9 10 11 11 10 11 11 9 5 5 6 8
22 21 20 19 18 18 17 16 16 16 17 18 18 16 16 16 16 16 16 16 15 14 13 15 15 13 12 12 13 16 16 16 19 19 18 16 15 18 22 22 19 19 17 15 15 13 11 10 10 11 11 11 9 7 5 6 7 8 10 12 13 13 13 14 15 14 13 12 10 8 7 7 7 8 7 7 9 11 8 5 6 10 11 8 6 7 8
21 20 19 18 18 18 16 15 15 15 16 17 18 17 16 16 16 17 17 17 16 14 14 16 15 13 12 12 12 14 16 16 17 18 19 19 19 20 22 21 20 19 18 17 16 13 12 12 12 12 12 12 11 9 7 7 8 8 9 9 10 11 12 13 15 15 15 14 12 10 9 8 9 10 9 9 11 11 10 6 4 6 10 11 9 8 8
21 19 18 17 18 17 16 15 14 15 15 16 17 17 16 16 16 17 17 18 18 15 14 16 16 13 13 13 13 15 16 17 18 18 19 22 23 22 21 21 21 20 19 18 17 14 12 13 12 13 14 14 12 10 8 8 7 8 9 9 9 10 10 12 14 13 12 12 11 9 9 10 11 11 11 12 13 12 12 9 6 6 9 12 11 10 10
20 19 17 17 18 17 16 15 14 14 14 15 16 16 16 15 16 17 17 18 19 16 14 16 16 13 13 14 15 16 18 18 17 18 20 22 24 25 24 23 23 21 19 18 17 14 12 12 13 14 14 13 12 10 9 9 8 8 8 9 9 9 8 9 12 12 10 10 9 7 7 8 9 10 12 14 15 13 12 10 8 9 10 12 12 13 13
19 18 17 17 17 17 16 14 13 14 14 15 16 16 16 16 16 16 17 18 18 17 15 15 15 14 15 15 16 18 20 18 16 18 20 22 24 28 27 25 24 22 18 17 17 15 12 11 13 14 14 13 13 11 9 9 10 10 10 9 9 10 9 9 11 11 10 10 10 8 9 9 8 8 12 14 14 14 13 10 9 11 13 14 15 16 16
19 18 17 17 17 16 15 13 13 13 14 14 15 16 16 16 15 16 16 17 17 17 15 15 14 15 16 16 16 19 22 20 18 18 20 20 24 29 28 25 24 23 20 17 16 14 12 12 12 13 14 16 16 13 11 11 11 11 11 10 9 9 9 11 11 11 11 12 12 12 12 11 9 8 10 13 13 14 13 12 11 13 15 17 18 18 17
18 18 17 17 17 15 14 12 12 13 13 14 15 16 17 16 15 15 16 16 16 15 15 15 15 15 14 15 17 21 24 22 19 19 18 18 23 27 26 25 24 22 21 20 17 13 12 12 12 13 15 18 17 14 14 14 12 11 11 11 9 9 9 10 11 11 11 12 14 14 13 12 10 10 11 13 13 14 14 13 13 15 17 18 19 18 17
18 18 17 17 16 14 13 12 12 13 13 13 14 15 16 15 15 15 15 16 16 15 13 12 12 13 14 16 18 21 25 24 20 19 18 19 22 23 22 22 22 20 19 19 17 14 13 13 13 14 15 17 17 15 14 14 13 12 12 11 11 11 10 10 11 11 10 11 11 11 11 10 9 10 12 13 14 16 18 16 14 16 18 18 18 19 19
17 18 17 17 16 14 13 13 13 12 12 12 13 14 14 14 14 15 15 15 15 15 13 10 9 11 13 16 18 21 25 26 23 20 19 19 21 20 17 18 19 18 16 17 16 15 14 14 15 16 15 15 15 14 14 13 12 12 12 12 11 10 9 9 10 10 11 11 10 9 8 7 7 10 13 15 15 17 20 19 16 17 18 16 16 20 20
17 17 17 16 15 14 13 13 13 12 12 12 12 13 13 14 14 14 15 15 15 15 13 9 9 12 12 14 19 22 25 27 25 22 21 21 21 19 17 17 18 17 15 13 15 15 14 13 14 15 15 14 14 13 13 13 12 11 11 10 9 9 8 8 8 9 9 10 10 8 7 6 8 10 13 14 15 18 20 19 18 20 22 21 20 20 19
17 17 17 16 15 14 14 14 13 13 13 12 12 13 14 15 15 14 14 15 15 13 10 7 7 10 12 14 20 23 24 26 27 25 23 21 20 19 19 19 20 19 16 13 15 16 14 13 13 13 14 14 13 12 12 12 12 11 10 9 9 9 8 6 6 7 6 6 6 5 3 3 5 7 10 12 13 17 19 15 13 17 20 22 24 23 20
17 17 17 16 15 14 14 14 14 14 14 13 14 15 16 17 17 15 15 15 15 13 11 9 7 9 10 14 19 22 23 26 28 27 25 21 19 19 20 20 21 21 18 17 18 19 17 14 13 14 16 15 14 13 12 12 13 12 11 9 9 7 4 2 2 4 5 4 5 6 4 1 2 2 9 14 13 11 8 5 7 9 8 10 16 20 20
17 17 17 16 16 15 14 14 14 14 14 14 15 16 17 17 18 18 17 16 16 15 14 11 9 9 10 13 17 21 23 25 27 28 26 22 20 19 19 20 21 20 19 21 22 23 23 20 15 15 18 17 16 15 14 13 14 13 11 10 9 6 3 3 2 4 4 3 8 8 5 0 4 5 5 10 10 8 7 6 8 8 4 3 6 12 15
17 17 17 16 16 15 14 14 13 13 13 14 16 17 18 18 18 18 17 17 16 15 13 11 10 10 11 13 16 19 22 24 26 28 27 24 22 20 19 20 20 18 17 19 20 20 21 19 14 14 18 19 17 17 17 16 15 13 11 11 10 7 6 6 3 3 2 2 7 9 8 5 3 5 9 9 7 5 4 3 5 6 6 4 4 7 10
17 17 17 17 16 15 14 14 13 13 14 15 17 17 18 17 17 16 15 15 14 14 13 12 10 10 13 15 16 18 20 22 24 27 28 26 24 22 22 23 23 21 18 17 17 16 15 13 12 15 17 18 18 18 18 18 16 14 12 11 10 9 8 7 5 3 3 3 5 8 10 9 7 6 9 10 8 5 4 3 3 4 4 4 4 5 7
17 17 17 17 16 15 14 14 14 14 15 16 16 17 17 16 15 14 13 12 13 12 12 12 10 10 13 15 16 17 18 19 21 23 26 27 27 26 26 26 24 21 19 20 21 18 15 12 14 15 15 17 18 18 18 19 17 14 12 11 11 11 11 9 6 6 5 3 2 4 8 10 9 8 9 9 8 6 5 4 5 5 5 6 6 6 6
18 17 17 16 16 15 14 14 14 14 15 15 16 16 15 13 13 12 11 11 12 12 11 11 11 10 11 13 15 16 17 18 19 19 21 25 27 27 27 26 24 22 21 22 23 21 17 14 13 14 15 18 19 18 19 20 18 14 12 11 12 12 13 11 9 8 8 5 1 3 6 8 8 7 7 7 7 6 5 5 5 5 6 6 6 6 5
17 17 17 16 15 15 14 14 14 14 14 14 14 13 12 11 11 11 11 11 12 11 11 11 10 10 10 11 12 13 15 17 19 18 18 19 22 25 26 26 25 24 24 24 23 22 19 18 17 16 16 18 20 20 20 19 18 16 14 12 13 14 15 14 12 10 9 8 5 3 6 7 6 5 6 5 4 4 4 4 4 4 4 5 5 4 4
17 17 16 16 15 14 14 13 13 13 12 12 12 11 10 9 9 9 9 10 11 11 10 11 10 10 11 11 10 11 14 16 17 20 20 17 18 23 27 27 26 25 24 24 23 22 20 19 19 20 20 20 21 22 21 19 18 17 16 14 14 16 16 15 14 12 11 10 8 5 5 6 6 4 4 3 3 3 3 3 3 3 3 3 4 4 4
17 16 16 15 14 13 13 12 12 11 10 10 10 9 9 8 8 9 9 10 11 10 9 10 11 11 12 11 9 10 12 13 14 19 22 19 17 19 25 28 29 26 23 23 24 25 23 19 18 20 22 23 23 21 20 19 17 16 15 14 14 15 15 14 13 11 10 11 11 8 6 6 6 6 5 4 4 4 3 3 3 3 3 3 4 4 4
16 16 15 14 13 12 12 11 10 10 9 8 8 9 8 8 8 8 9 10 12 11 10 11 10 9 11 13 10 9 11 12 12 15 20 22 20 19 21 24 25 24 23 24 24 25 26 23 20 20 22 23 22 20 18 18 17 14 14 14 14 14 15 14 13 11 10 12 14 12 9 7 8 8 7 6 5 4 4 4 5 4 4 4 5 5 5
16 15 14 13 12 11 10 9 9 9 8 8 9 9 8 8 8 9 9 10 12 12 12 11 9 9 11 13 11 9 10 10 10 12 16 20 21 20 20 22 22 21 22 24 25 25 24 22 20 20 21 21 20 19 17 16 16 15 13 13 13 15 16 16 14 13 11 11 11 10 8 7 7 8 8 8 6 6 6 6 6 6 5 5 6 6 5
15 14 14 13 11 11 10 8 8 8 7 7 8 8 7 8 8 8 9 10 11 12 12 11 9 9 10 11 11 11 10 9 10 11 12 15 18 19 20 22 22 21 21 23 24 24 22 18 18 21 22 20 19 19 18 17 16 16 15 14 15 16 17 16 15 13 11 9 7 6 5 4 4 5 6 7 8 7 7 7 7 6 6 6 6 6 6
14 14 13 12 11 10 9 7 7 7 7 7 8 8 8 8 8 8 9 10 10 10 11 10 8 8 9 10 11 12 12 11 11 11 11 12 15 16 17 18 19 20 21 22 22 23 23 22 22 24 25 22 19 18 19 19 17 16 15 16 17 17 17 16 15 14 12 11 9 9 8 7 7 7 7 7 8 8 8 7 7 7 7 7 7 7 6
14 13 13 12 11 10 8 7 7 7 7 7 9 10 9 8 8 8 8 8 7 8 9 8 8 9 10 10 11 12 12 12 11 11 11 12 13 14 14 15 16 17 20 21 22 22 23 24 26 27 26 23 19 18 19 20 18 16 16 18 19 18 17 16 16 15 13 12 12 12 12 12 12 11 10 10 10 10 9 9 8 7 7 7 7 8 7
13 12 12 11 10 9 9 9 8 8 8 8 9 10 9 8 8 8 8 7 6 6 6 6 7 9 10 11 12 12 13 12 11 12 12 12 12 13 13 13 14 15 17 18 19 21 23 25 28 28 24 21 20 19 20 19 17 15 15 19 21 20 18 16 15 14 12 11 11 12 13 13 13 12 11 11 10 9 9 8 8 7 7 7 8 8 8
12 12 11 11 10 9 9 9 8 8 9 9 10 10 9 9 9 8 7 7 7 6 5 5 6 7 9 11 13 13 13 13 12 12 12 12 12 12 13 13 15 15 15 16 18 21 23 26 27 24 19 18 20 20 20 19 16 14 15 19 20 18 16 14 13 12 11 10 10 11 12 13 12 11 11 10 9 8 8 8 8 8 8 8 9 9 8
12 11 11 10 11 11 10 9 9 10 11 11 10 10 10 9 8 7 6 6 7 7 7 6 6 6 7 10 12 13 14 13 12 12 12 12 12 12 12 12 14 15 15 15 18 21 24 24 22 19 17 18 19 20 21 19 17 15 16 18 18 15 14 13 13 12 11 11 11 12 12 12 12 11 10 9 9 8 8 8 9 9 9 9 9 9 9
12 12 11 11 12 12 11 9 10 11 11 9 8 8 7 6 7 8 7 7 8 9 8 8 7 7 7 9 11 13 13 13 12 10 10 11 12 13 12 12 12 13 14 14 14 17 20 19 16 15 16 17 18 19 21 20 18 16 17 17 17 15 14 13 13 13 12 11 11 11 11 11 11 10 10 10 10 10 10 10 10 9 10 10 10 10 9
12 12 12 12 13 13 12 10 9 8 8 6 5 6 8 8 10 11 10 9 9 9 9 9 9 9 9 10 11 13 14 14 12 10 8 7 9 11 13 13 12 12 13 14 15 16 16 14 12 12 13 15 17 19 20 20 19 18 17 17 16 15 14 14 14 14 13 13 12 11 10 10 10 11 11 11 11 11 11 11 11 11 11 11 10 10 10
13 12 12 13 12 12 12 10 7 6 7 7 8 10 12 13 13 12 11 10 9 8 7 8 9 11 10 10 11 12 13 13 12 10 9 7 5 6 9 12 11 11 12 14 15 14 11 9 8 10 12 14 17 19 20 20 20 19 18 17 16 15 15 16 16 15 14 13 12 11 10 11 11 12 12 12 12 11 11 11 11 11 11 11 11 12 13
13 13 13 13 11 10 10 9 9 9 10 9 10 12 14 14 13 12 11 10 9 9 7 7 8 10 11 11 11 11 12 13 12 11 9 8 5 4 6 8 10 11 12 12 10 8 6 4 6 10 13 15 17 19 20 20 20 19 18 17 17 17 17 16 16 15 14 13 11 11 11 11 12 12 12 12 11 11 11 11 11 11 12 12 13 15 15
13 13 13 13 11 9 8 8 10 12 12 11 11 13 14 14 13 12 12 11 11 11 9 7 8 11 12 12 12 12 13 14 14 12 11 10 8 5 5 7 9 9 7 5 4 3 4 6 8 11 14 16 17 18 18 19 19 19 18 17 17 17 17 17 16 16 14 12 11 11 11 12 12 12 11 11 11 10 11 11 12 13 14 15 16 17 17
13 13 13 12 11 9 8 8 9 10 12 13 12 12 13 13 14 14 13 12 13 13 10 7 7 9 10 12 13 13 13 14 14 13 12 11 10 8 8 9 7 4 3 3 2 1 4 8 11 13 14 15 16 16 17 18 19 18 18 18 18 18 18 17 18 17 15 13 12 12 12 12 12 12 11 11 11 12 12 13 14 15 17 18 18 18 17
12 12 12 11 11 10 10 10 9 9 10 12 12 12 13 14 15 15 14 13 14 13 12 9 8 9 10 12 13 12 11 12 14 14 13 12 12 12 11 8 4 3 4 2 1 2 4 8 11 13 14 15 15 15 16 17 18 19 19 19 19 18 18 18 17 16 15 13 13 13 14 14 13 13 13 13 13 13 14 15 16 17 18 19 18 17 16
11 11 10 10 11 11 12 12 11 10 11 12 13 13 13 13 13 13 13 13 13 13 13 12 11 11 12 13 13 12 10 11 13 15 15 14 13 11 8 5 4 4 3 3 3 4 5 8 10 11 12 13 14 14 15 16 17 18 19 19 19 18 18 18 16 15 15 15 14 14 15 15 14 14 14 13 13 13 14 16 17 18 18 17 17 16 16
Wind_Direction
322 322 320 318 314 308 297 285 279 275 275 276 274 270 257 233 220 216 213 213 214 215 215 211 204 201 204 213 217 227 227 217 224 228 225 230 227 223 228 230 231 227 215 226 238 221 197 192 203 198 193 221 303 327 340 339 333 337 339 337 339 325 334 42 68 262 269 205 145 132 109 112 127 106 116 164 198 222 223 237 269 266 249 247 246 274 258
323 323 323 320 317 312 305 294 282 272 266 265 264 264 253 226 217 217 215 214 218 223 224 220 215 215 218 220 221 228 230 230 240 227 220 224 219 222 233 236 243 247 228 219 221 219 214 201 195 198 204 224 286 318 337 343 336 343 356 342 333 322 320 56 102 161 263 252 192 170 137 48 50 44 39 20 314 234 223 240 258 258 260 248 225 258 258
324 324 325 323 320 315 309 299 287 273 264 259 256 256 251 228 219 220 221 221 223 228 231 230 231 233 232 227 225 233 234 236 251 239 224 222 219 221 231 240 248 243 219 212 213 216 225 216 205 209 214 223 244 273 308 341 341 344 1 359 345 343 3 50 136 143 182 231 251 278 324 3 23 17 7 3 351 294 233 242 244 235 257 251 235 272 295
325 325 327 326 323 319 313 303 290 275 265 258 254 253 248 232 222 220 223 226 227 231 235 235 237 240 238 232 233 243 239 229 235 240 231 225 224 226 233 239 241 228 216 220 219 216 233 247 239 225 221 227 241 262 283 300 322 332 336 342 338 338 12 42 108 174 187 201 217 324 1 6 17 13 10 12 1 344 275 227 235 237 257 261 253 271 286
327 326 327 328 326 322 318 310 295 279 269 260 255 253 247 237 226 218 218 224 230 233 237 239 240 240 240 239 241 249 246 232 227 237 241 233 227 231 236 237 238 232 226 224 212 208 230 248 249 242 241 248 253 260 276 288 305 319 322 322 321 318 14 51 86 143 159 176 194 214 17 1 357 6 11 12 8 1 344 238 242 254 259 272 274 276 281
327 326 326 327 327 324 321 316 304 287 274 263 257 255 250 242 232 220 215 217 224 230 235 239 241 243 246 248 250 251 252 253 253 251 250 237 225 229 234 235 238 239 235 229 215 209 224 234 242 251 253 258 263 265 272 279 284 291 301 310 306 279 44 44 84 150 163 171 188 211 230 278 318 334 344 349 357 359 351 333 310 272 251 258 275 279 271
324 325 325 325 325 323 320 316 310 298 283 270 261 257 253 247 241 230 220 218 220 224 230 235 239 243 247 251 255 256 256 262 271 271 265 247 228 228 235 238 239 236 233 234 231 230 236 242 251 261 262 264 270 273 277 279 273 272 270 251 251 245 219 67 53 196 222 204 206 224 236 248 272 290 306 321 330 341 344 335 329 301 253 257 270 275 258
320 321 322 322 322 320 316 313 310 303 292 280 269 260 255 250 248 242 232 225 223 224 227 232 234 237 241 245 250 255 258 263 263 259 260 252 232 229 236 241 240 235 232 235 239 243 253 264 270 272 272 273 275 281 288 285 254 247 249 232 237 251 224 179 131 268 228 217 225 237 243 248 257 267 281 298 311 324 332 324 322 329 278 284 280 256 248
316 319 320 319 318 316 312 309 307 302 296 287 277 267 259 253 251 249 244 237 232 231 232 234 234 235 238 241 245 250 257 261 256 244 240 246 243 234 235 239 240 237 232 233 241 249 261 274 276 272 271 273 274 280 288 278 193 168 184 204 214 223 205 171 168 236 252 244 250 256 261 261 258 258 264 278 295 310 314 312 316 330 180 267 220 190 226
310 315 317 315 314 313 309 305 303 299 295 289 281 274 266 261 257 253 250 248 242 239 239 238 239 239 239 240 243 246 248 249 251 250 237 238 244 234 229 237 243 240 236 238 248 259 268 274 274 267 264 267 271 276 277 246 206 170 167 182 186 192 195 181 183 225 250 243 262 280 279 272 259 251 255 267 283 298 300 303 311 319 199 216 187 153 156
302 307 312 312 310 308 305 301 298 295 292 288 282 277 272 268 265 261 257 254 250 247 245 244 243 243 242 242 242 243 242 237 243 253 244 232 238 230 222 233 242 240 238 242 247 253 261 264 262 256 256 256 256 266 265 236 236 248 229 222 218 197 196 193 194 219 237 238 269 288 281 267 264 256 251 259 269 276 283 293 302 312 275 194 172 161 172
295 299 305 309 307 305 303 298 292 290 288 285 282 280 276 272 271 268 265 262 257 251 248 247 246 244 243 243 243 243 242 236 235 248 252 238 236 232 221 226 236 236 232 233 240 248 255 252 244 242 244 244 244 253 265 260 258 266 261 244 239 228 215 206 195 202 228 247 271 287 271 268 280 274 251 250 258 260 264 274 283 291 271 216 175 165 177
290 292 297 303 303 300 300 297 289 285 283 281 280 280 279 276 274 274 272 270 266 260 255 251 248 246 244 244 244 244 244 241 235 240 250 246 237 231 221 220 229 233 232 236 242 246 245 236 232 236 241 247 251 254 262 267 264 262 260 247 236 229 220 217 211 208 225 236 228 228 279 293 290 278 257 245 243 241 239 239 243 264 260 235 211 191 191
286 287 291 297 298 296 297 296 288 280 277 277 276 276 278 278 276 276 276 274 272 268 264 261 256 253 249 246 245 243 243 244 240 237 245 248 237 227 218 216 223 231 235 237 235 229 231 234 237 240 244 248 251 253 255 255 251 249 248 247 246 237 227 228 230 226 226 234 239 256 285 295 287 280 271 256 242 238 236 228 224 236 250 245 240 226 207
284 284 286 290 292 291 292 294 289 280 273 272 273 272 274 277 278 278 278 277 276 273 270 269 265 260 255 250 248 244 241 242 242 238 242 247 237 224 217 214 219 226 228 226 222 218 222 236 242 239 234 233 236 241 245 243 241 241 243 250 257 251 242 244 245 232 225 232 248 264 283 291 290 285 273 258 244 237 235 230 221 218 231 252 255 237 205
283 283 284 285 286 286 288 291 289 281 272 269 269 269 270 273 276 278 280 280 280 278 275 272 269 264 258 252 248 245 240 239 240 236 234 240 239 223 213 210 215 220 220 214 213 216 224 240 245 235 220 214 217 224 230 232 236 240 243 248 251 247 248 254 253 241 229 227 229 231 239 271 295 291 267 249 237 228 230 238 229 215 212 234 263 248 213
281 282 281 281 280 281 284 288 288 281 273 268 268 267 266 268 271 275 279 281 281 282 279 275 271 266 259 251 242 239 234 231 232 225 216 219 222 211 203 205 210 214 214 210 208 213 226 239 242 233 220 211 211 218 227 234 242 247 245 244 241 238 241 244 244 243 240 234 233 240 249 264 280 281 266 241 228 222 220 239 240 215 205 212 239 246 228
278 279 278 277 276 277 281 285 284 279 273 269 268 267 265 266 269 272 277 280 281 282 280 277 275 267 255 244 234 231 226 218 216 212 202 198 200 199 198 200 203 206 207 209 212 218 231 239 239 233 224 215 215 224 233 240 250 257 254 246 240 237 237 237 237 240 241 236 235 243 254 263 269 268 259 235 225 224 220 224 246 222 204 201 211 225 224
275 275 275 273 272 274 278 280 279 276 272 270 270 269 267 267 269 272 275 279 281 281 279 277 275 267 252 240 228 224 222 213 211 208 196 187 190 196 197 197 199 201 201 208 216 222 230 235 234 229 223 217 216 224 234 242 254 266 258 247 240 240 239 235 231 231 231 233 237 247 258 262 263 263 254 235 223 225 230 235 246 236 211 200 202 209 208
272 272 271 268 267 271 275 276 274 271 270 270 270 270 270 270 271 273 275 278 280 278 274 273 270 265 255 241 227 221 216 211 212 211 196 185 186 191 194 196 198 200 202 209 216 220 226 231 227 221 219 216 216 225 238 246 252 259 255 246 242 242 241 233 226 224 226 229 231 245 264 264 260 256 247 236 227 229 238 242 239 234 221 204 198 199 197
268 268 266 264 264 268 272 272 270 268 268 270 270 271 273 272 273 276 277 279 281 278 273 273 268 260 252 240 227 219 211 208 215 213 199 188 185 187 190 194 199 203 207 210 210 212 220 224 218 214 214 214 218 226 237 246 247 246 248 250 246 241 241 241 234 229 233 234 235 249 264 265 262 256 247 241 236 236 242 242 232 230 226 210 196 193 191
265 263 262 260 260 265 268 267 266 266 267 269 270 272 274 275 276 279 279 280 282 279 276 275 267 256 248 238 226 217 209 207 214 214 202 192 187 187 190 195 200 206 212 213 211 213 217 216 217 221 219 218 222 228 236 246 252 249 245 246 247 248 249 250 247 245 248 253 256 261 263 260 260 257 246 239 235 233 235 237 235 234 226 212 201 197 194
261 259 257 257 258 261 263 261 263 265 267 268 269 271 274 278 280 282 282 282 283 281 279 275 265 256 246 234 222 214 208 207 211 213 206 195 189 188 191 195 199 204 211 217 221 225 227 227 232 237 228 221 224 232 236 243 251 251 245 242 249 261 263 256 253 255 257 260 262 262 261 259 254 243 233 232 231 222 213 213 224 228 217 204 199 197 191
257 255 254 254 255 256 257 258 263 267 267 268 269 270 274 279 282 284 286 287 289 289 285 275 264 254 241 227 217 210 208 209 209 209 206 198 190 187 188 192 195 199 208 218 222 225 231 233 232 233 230 225 227 231 233 240 246 247 247 248 250 256 259 253 251 254 256 262 267 266 265 262 248 230 223 228 230 216 199 190 197 205 198 189 188 189 181
253 251 250 250 251 251 253 257 264 268 268 270 270 272 276 280 284 288 291 293 296 294 289 279 264 255 240 222 213 209 208 209 208 207 204 194 185 181 179 183 188 191 201 215 218 218 226 230 227 229 229 225 227 230 232 238 244 243 247 252 251 253 254 250 251 255 257 261 266 266 268 264 242 223 221 229 233 215 193 179 174 179 177 170 172 178 170
249 247 246 247 247 248 252 258 264 266 268 270 270 272 276 279 284 291 294 297 298 295 293 285 260 248 235 215 209 208 208 208 207 207 202 188 180 178 177 178 183 182 184 199 207 208 215 224 227 231 231 227 229 234 234 237 242 243 248 250 245 245 250 254 259 263 264 265 265 265 268 264 247 229 222 229 235 222 203 186 173 172 170 160 153 156 155
246 245 244 244 245 246 250 258 263 265 267 269 270 272 276 278 282 287 291 294 297 293 294 299 267 241 226 210 206 208 209 208 208 207 201 189 183 186 185 186 189 185 180 191 199 196 199 210 222 232 235 231 232 234 234 237 240 241 244 241 234 241 257 269 271 275 282 282 267 250 240 250 247 229 218 219 223 220 216 207 184 177 175 161 148 146 151
244 243 242 242 243 245 250 256 262 264 265 268 270 273 276 278 281 283 282 286 289 284 281 285 271 240 220 208 206 209 211 210 208 207 202 191 186 189 192 198 203 200 198 207 210 206 205 208 216 228 234 233 234 233 231 235 239 239 239 233 229 239 262 281 292 310 309 268 206 190 193 286 12 188 201 201 191 179 180 169 146 158 177 163 144 141 146
242 241 240 241 242 244 250 255 260 263 265 269 272 274 277 278 280 280 278 277 280 281 278 274 256 230 214 207 207 210 212 212 210 208 203 195 190 190 195 206 212 212 213 218 222 225 224 217 215 229 236 236 237 235 231 232 238 240 235 227 224 222 198 163 107 15 338 224 179 166 167 131 37 61 134 171 161 129 103 99 111 118 131 170 152 135 133
241 240 239 240 241 244 248 254 258 263 269 274 277 278 279 278 277 278 277 274 274 276 275 267 250 223 208 205 207 209 212 214 214 212 208 201 195 195 200 207 207 205 208 215 221 223 218 213 219 240 243 239 237 236 233 233 238 240 234 226 224 215 199 188 156 77 46 167 166 159 153 150 127 74 80 96 108 101 89 99 119 124 132 157 160 132 126
240 239 238 239 241 243 247 252 258 265 272 278 280 280 279 278 277 276 274 271 270 271 268 262 247 220 205 204 207 209 211 214 217 217 215 211 204 199 198 198 197 198 208 223 227 213 200 210 239 249 244 239 236 233 232 233 235 236 231 228 224 212 201 200 188 159 134 121 143 151 141 131 132 125 106 103 111 117 120 133 144 147 153 165 172 161 151
239 238 237 238 241 244 247 251 258 268 276 280 280 279 278 279 277 273 267 265 266 266 263 256 242 217 203 204 207 207 209 213 217 220 221 220 215 208 203 203 208 216 228 239 236 216 198 216 244 248 244 239 232 227 227 229 230 230 227 225 223 210 198 197 196 181 168 138 91 124 136 133 131 132 128 126 130 135 144 153 158 165 177 187 193 193 186
238 237 237 237 241 244 247 252 260 270 277 278 277 278 280 279 275 269 262 260 260 260 258 252 236 212 198 201 205 206 207 211 214 216 219 222 222 219 218 220 226 230 231 232 228 216 206 215 233 242 246 241 231 225 226 226 227 226 222 219 216 207 195 193 195 182 168 163 114 90 132 147 149 145 143 139 135 137 144 149 152 162 176 184 190 195 195
237 237 236 237 240 244 248 254 263 271 276 275 275 278 276 271 269 267 262 258 255 251 250 245 228 204 191 194 199 201 204 208 210 209 211 216 218 219 221 221 221 221 221 220 219 220 223 226 228 234 243 242 232 227 226 225 224 225 222 216 210 202 193 190 191 180 167 172 182 154 146 158 164 158 155 151 141 144 153 155 156 164 168 171 178 182 184
236 235 234 236 240 243 248 256 265 271 273 272 273 274 271 267 267 266 260 254 247 243 242 237 221 199 190 192 193 195 200 206 208 208 208 209 208 211 215 214 211 212 215 216 215 218 223 224 223 228 237 239 233 227 224 223 223 224 223 218 209 203 200 199 197 188 174 176 193 196 171 169 177 176 171 173 172 170 175 180 181 186 188 184 181 180 185
233 232 233 235 238 242 248 257 264 268 269 268 268 268 266 268 269 262 252 244 237 233 235 232 219 200 195 198 196 193 199 203 204 205 209 211 208 205 209 212 211 208 209 212 213 213 213 215 220 228 233 235 234 231 227 225 224 224 224 218 208 207 211 211 207 201 186 180 193 207 194 175 182 192 195 201 205 200 196 197 198 202 212 218 213 208 210
229 229 230 231 234 240 248 255 259 262 264 263 262 262 262 267 267 259 250 241 231 224 225 226 216 199 198 202 198 193 201 205 201 200 207 214 214 207 204 210 213 211 210 214 220 222 219 217 222 230 233 233 233 234 231 228 226 224 221 214 205 205 208 205 202 205 195 183 190 206 211 198 196 201 205 209 213 207 199 200 207 212 220 227 226 222 222
223 224 225 226 230 237 243 248 252 256 257 255 256 259 260 260 259 252 246 240 232 226 225 223 211 199 202 204 198 197 204 206 202 202 207 214 218 215 211 215 220 221 221 225 234 239 232 222 221 230 234 232 229 228 226 226 225 221 215 211 207 207 209 209 211 215 208 197 202 217 223 216 214 214 212 210 208 205 203 204 207 210 213 218 222 225 230
215 217 218 221 226 232 237 239 241 245 250 250 249 251 249 249 250 246 241 239 234 227 226 223 210 203 208 204 198 202 208 203 199 205 209 212 216 218 218 221 225 229 231 234 239 241 238 233 232 233 231 227 224 222 220 221 222 219 212 208 206 209 214 216 217 217 217 221 231 232 216 212 222 223 218 215 212 209 208 206 204 202 200 203 214 224 227
207 209 212 217 221 226 231 235 236 240 244 240 235 237 242 247 247 242 237 239 235 227 224 220 206 204 210 205 200 205 210 206 204 209 213 215 218 222 225 226 227 229 232 236 238 239 240 242 242 237 229 223 220 220 221 222 224 223 218 209 203 205 210 212 212 215 221 226 223 205 189 190 200 200 197 202 206 206 204 202 202 203 202 202 208 215 218
203 206 210 215 217 217 218 221 227 234 235 230 231 237 242 242 239 234 232 232 230 226 223 217 207 206 210 208 205 209 212 212 212 213 215 218 222 225 228 228 227 227 231 234 235 237 240 242 243 239 231 221 216 218 222 224 224 225 220 206 196 197 204 208 211 219 224 223 216 204 195 196 201 200 196 195 197 200 201 201 203 206 206 204 206 210 212
203 207 211 213 211 210 214 220 225 231 231 231 236 240 237 230 228 231 228 221 215 215 214 209 206 208 208 206 206 209 211 212 214 215 216 219 221 223 226 226 225 227 232 234 234 233 234 237 241 241 232 218 213 217 221 221 223 224 216 201 194 196 204 209 212 215 215 213 212 207 204 205 208 208 206 204 202 202 204 205 207 208 207 208 212 214 215
203 206 209 209 203 203 211 219 224 228 231 233 236 237 232 224 221 221 219 211 202 193 184 183 188 197 204 206 206 207 209 210 212 214 218 221 222 224 228 229 230 232 235 235 232 229 229 233 239 239 227 213 212 216 217 217 218 217 208 198 194 196 201 204 207 210 211 209 205 203 205 210 212 212 211 209 206 205 208 210 211 212 213 218 221 223 225
204 205 206 204 202 203 210 218 223 226 232 239 240 235 228 221 211 202 195 190 186 180 178 179 176 176 191 203 206 207 208 209 210 214 220 224 226 229 232 234 236 238 235 229 226 227 229 234 237 233 220 212 212 213 212 212 212 207 200 195 193 193 195 199 203 208 211 211 206 202 203 206 208 209 211 211 210 212 215 216 217 219 222 225 228 232 241
205 206 204 203 204 206 210 220 228 230 236 247 247 231 216 204 194 184 175 172 177 180 183 187 183 178 185 195 201 204 206 207 208 213 222 228 231 234 235 234 233 231 226 224 227 230 231 231 229 221 214 213 212 211 210 210 210 207 201 197 195 195 197 203 209 212 213 212 211 208 207 207 207 208 211 213 215 217 220 221 224 226 227 231 237 246 260
206 209 208 208 212 214 216 222 233 237 236 235 220 194 182 183 187 184 180 182 189 188 184 185 189 190 191 194 197 201 203 205 209 217 231 243 245 239 234 230 226 221 220 225 231 234 233 230 225 218 212 210 209 210 210 211 211 208 204 201 202 204 206 209 213 215 214 213 212 211 210 209 210 212 214 216 217 219 221 224 227 230 233 240 250 262 276
208 210 210 212 219 225 226 226 231 231 221 209 195 186 186 188 188 188 189 195 199 197 192 191 193 193 191 189 192 197 202 206 211 220 234 252 262 242 223 219 218 219 223 228 232 235 237 236 229 221 214 208 207 208 209 209 209 209 206 205 208 211 213 214 215 215 213 212 212 213 213 212 211 212 214 216 217 219 222 226 230 235 241 250 261 272 280
210 211 212 214 221 228 230 226 221 216 211 205 198 197 197 195 192 195 199 199 198 203 211 209 196 188 184 182 185 193 201 207 214 223 234 246 252 236 217 220 225 229 232 238 245 252 253 240 222 216 211 207 205 206 207 208 208 209 207 206 207 210 214 216 215 212 209 209 210 212 213 213 212 213 215 217 219 222 226 230 234 241 249 258 267 275 281
213 215 218 220 223 228 231 230 226 222 217 213 210 208 205 200 199 205 210 205 199 204 215 213 191 181 178 179 185 194 202 208 215 223 233 239 239 234 229 232 236 238 245 264 290 287 241 211 205 205 205 204 204 204 204 206 207 207 206 206 207 208 211 214 212 207 204 204 210 213 213 212 213 216 218 221 225 229 232 236 240 245 253 261 270 277 282
216 220 222 223 225 228 229 230 229 223 218 217 218 215 209 204 203 207 212 211 204 204 209 208 192 182 180 182 189 200 209 214 219 227 234 238 238 241 243 244 248 269 322 345 347 254 207 205 204 202 200 200 202 202 201 202 204 204 204 205 206 206 208 212 213 208 202 202 207 210 210 210 214 217 220 224 228 232 235 240 245 251 258 267 274 279 282
222 226 226 224 225 226 225 225 225 220 214 216 218 217 214 211 208 208 212 214 211 206 203 201 198 196 193 190 194 204 216 221 223 229 237 240 240 244 251 258 281 342 352 329 249 194 192 202 206 204 200 199 200 201 201 201 201 201 202 203 203 203 205 210 212 209 205 204 206 206 207 210 213 216 220 224 229 234 241 248 255 262 268 273 277 278 278
229 232 230 225 225 227 227 226 225 221 217 218 221 221 220 218 213 211 214 217 215 210 206 203 203 205 204 200 201 209 220 223 224 230 236 240 243 250 265 295 326 329 312 284 241 207 193 195 199 201 198 196 197 201 202 200 198 197 198 199 199 200 203 205 206 205 205 206 206 205 207 211 215 218 222 227 234 243 252 259 265 269 272 273 273 273 274
Height
3141 3139 3138 3137 3136 3135 3135 3134 3134 3135 3135 3136 3136 3136 3136 3136 3137 3137 3137 3138 3138 3138 3139 3139 3140 3141 3142 3142 3143 3143 3144 3144 3145 3145 3145 3145 3146 3146 3146 3146 3146 3146 3146 3147 3147 3147 3147 3147 3148 3147 3147 3147 3147 3147 3147 3147 3146 3146 3145 3145 3145 3145 3145 3145 3146 3147 3148 3148 3148 3148 3148 3148 3148 3148 3147 3147 3147 3146 3146 3146 3145 3145 3145 3145 3145 3144 3142
3139 3138 3136 3135 3134 3133 3132 3132 3132 3132 3133 3133 3134 3134 3135 3135 3135 3135 3136 3137 3137 3137 3138 3138 3139 3140 3140 3141 3141 3142 3142 3143 3143 3143 3144 3144 3144 3144 3145 3145 3145 3146 3146 3146 3146 3146 3146 3146 3147 3147 3147 3147 3147 3147 3147 3147 3146 3145 3145 3144 3144 3144 3144 3144 3145 3146 3148 3149 3149 3148 3148 3148 3147 3147 3146 3146 3145 3145 3144 3144 3145 3144 3144 3144 3145 3143 3141
3138 3136 3135 3133 3132 3131 3130 3130 3130 3130 3130 3131 3132 3132 3133 3133 3134 3134 3135 3135 3136 3136 3136 3137 3137 3138 3138 3139 3140 3141 3141 3141 3141 3142 3142 3143 3143 3143 3144 3144 3144 3145 3145 3145 3145 3145 3146 3146 3146 3147 3147 3147 3146 3146 3146 3146 3146 3145 3144 3144 3143 3143 3143 3143 3144 3145 3147 3149 3149 3149 3148 3148 3147 3147 3146 3145 3144 3144 3143 3143 3144 3143 3143 3143 3143 3142 3142
3136 3135 3133 3132 3130 3129 3129 3128 3128 3128 3128 3128 3129 3130 3131 3132 3132 3132 3133 3133 3134 3134 3135 3135 3136 3136 3137 3138 3139 3139 3139 3140 3140 3140 3140 3141 3142 3142 3143 3143 3143 3144 3144 3144 3144 3145 3145 3145 3146 3146 3146 3146 3146 3146 3145 3145 3145 3145 3144 3144 3143 3143 3143 3143 3143 3143 3144 3146 3148 3149 3148 3148 3147 3146 3146 3145 3144 3143 3143 3142 3143 3143 3142 3142 3142 3142 3142
3135 3134 3132 3131 3129 3128 3127 3127 3126 3126 3126 3126 3127 3128 3128 3129 3130 3130 3131 3131 3132 3132 3133 3133 3134 3134 3135 3136 3137 3137 3137 3138 3139 3139 3139 3139 3140 3141 3141 3142 3142 3142 3142 3143 3143 3144 3144 3144 3145 3145 3145 3145 3145 3145 3145 3144 3144 3144 3144 3144 3143 3143 3142 3142 3143 3144 3144 3145 3147 3148 3148 3148 3147 3146 3145 3144 3144 3143 3143 3142 3142 3142 3142 3141 3141 3141 3142
3134 3132 3131 3130 3128 3127 3126 3125 3125 3124 3124 3124 3125 3126 3126 3127 3127 3128 3128 3129 3129 3130 3130 3131 3132 3133 3133 3134 3135 3135 3136 3137 3137 3137 3137 3138 3138 3139 3140 3140 3141 3141 3141 3142 3142 3143 3143 3144 3144 3144 3144 3144 3144 3144 3144 3144 3143 3144 3143 3143 3143 3142 3142 3142 3143 3144 3145 3145 3146 3147 3147 3147 3146 3145 3145 3144 3144 3143 3143 3142 3142 3142 3141 3141 3141 3141 3141
3132 3131 3130 3128 3127 3126 3125 3124 3124 3123 3123 3123 3123 3124 3124 3125 3125 3125 3126 3127 3127 3128 3128 3129 3130 3131 3131 3132 3133 3134 3135 3135 3135 3136 3136 3136 3137 3138 3138 3139 3139 3140 3140 3141 3141 3142 3142 3142 3143 3142 3142 3142 3142 3143 3143 3142 3142 3142 3142 3143 3142 3142 3142 3142 3143 3144 3144 3145 3145 3145 3145 3146 3146 3145 3144 3144 3144 3144 3143 3143 3142 3141 3140 3140 3140 3141 3141
3130 3129 3128 3127 3126 3125 3124 3123 3122 3122 3121 3121 3121 3122 3122 3122 3123 3123 3124 3124 3125 3126 3126 3127 3128 3129 3130 3130 3131 3132 3133 3134 3134 3135 3134 3135 3135 3136 3137 3138 3138 3139 3139 3140 3140 3141 3141 3141 3141 3142 3141 3141 3141 3141 3141 3140 3141 3141 3141 3142 3142 3141 3142 3142 3142 3143 3143 3143 3143 3143 3144 3144 3144 3144 3144 3144 3144 3144 3144 3143 3142 3141 3140 3140 3140 3141 3140
3129 3128 3127 3126 3125 3123 3122 3121 3121 3120 3120 3120 3120 3120 3120 3120 3121 3121 3122 3122 3123 3123 3124 3125 3126 3127 3127 3128 3129 3130 3131 3132 3132 3133 3134 3133 3134 3135 3136 3136 3137 3137 3138 3139 3139 3140 3140 3140 3140 3140 3140 3140 3140 3140 3139 3139 3140 3140 3140 3141 3141 3141 3141 3141 3141 3142 3142 3142 3142 3141 3141 3142 3142 3142 3143 3143 3144 3145 3145 3144 3142 3141 3140 3141 3141 3141 3140
3127 3126 3125 3124 3123 3122 3121 3120 3119 3119 3118 3118 3118 3118 3118 3118 3118 3119 3119 3120 3120 3121 3122 3122 3123 3124 3125 3126 3127 3128 3129 3130 3131 3131 3132 3132 3132 3133 3134 3135 3136 3136 3137 3138 3138 3139 3139 3139 3139 3139 3139 3139 3139 3139 3138 3138 3139 3140 3140 3140 3140 3140 3140 3140 3141 3141 3141 3141 3141 3140 3140 3140 3140 3140 3141 3142 3143 3144 3144 3144 3143 3141 3141 3141 3141 3141 3140
3124 3124 3123 3122 3121 3120 3119 3118 3117 3117 3117 3116 3117 3117 3116 3116 3116 3117 3117 3117 3118 3118 3119 3120 3120 3121 3122 3123 3124 3125 3127 3128 3129 3129 3129 3130 3130 3131 3132 3133 3134 3135 3136 3136 3137 3137 3138 3138 3138 3138 3138 3137 3138 3138 3138 3138 3139 3139 3139 3140 3140 3140 3140 3140 3140 3140 3140 3140 3140 3140 3139 3139 3138 3138 3139 3140 3141 3142 3143 3143 3143 3142 3141 3141 3141 3141 3141
3122 3121 3121 3120 3119 3118 3117 3116 3116 3115 3115 3115 3115 3115 3115 3115 3115 3115 3115 3115 3115 3116 3117 3117 3118 3118 3119 3120 3121 3123 3124 3126 3127 3127 3127 3128 3128 3128 3130 3131 3133 3134 3134 3135 3135 3136 3136 3136 3137 3137 3137 3136 3136 3137 3137 3137 3138 3138 3139 3139 3139 3139 3139 3139 3140 3140 3140 3140 3140 3140 3139 3137 3137 3138 3138 3139 3140 3141 3142 3142 3142 3142 3142 3142 3141 3141 3142
3119 3118 3118 3117 3117 3116 3115 3115 3114 3113 3113 3112 3113 3113 3113 3113 3113 3113 3113 3113 3113 3114 3114 3114 3115 3115 3116 3118 3119 3120 3121 3123 3125 3125 3126 3126 3127 3127 3128 3129 3131 3133 3133 3134 3134 3134 3135 3135 3136 3136 3135 3135 3135 3135 3136 3136 3136 3137 3137 3138 3138 3138 3139 3139 3139 3139 3139 3139 3139 3139 3138 3137 3137 3137 3137 3138 3139 3140 3141 3141 3142 3142 3142 3141 3141 3141 3142
3116 3116 3115 3115 3114 3114 3113 3112 3112 3111 3111 3110 3111 3111 3111 3111 3111 3111 3111 3111 3111 3112 3112 3112 3112 3113 3114 3115 3115 3116 3118 3120 3122 3123 3124 3125 3125 3126 3127 3128 3130 3131 3132 3132 3133 3133 3134 3134 3134 3134 3134 3134 3134 3134 3134 3134 3134 3135 3136 3136 3137 3137 3138 3138 3138 3138 3138 3138 3138 3138 3137 3137 3136 3136 3136 3137 3138 3139 3140 3140 3141 3141 3141 3141 3141 3141 3141
3113 3113 3112 3112 3111 3111 3110 3110 3109 3109 3108 3108 3108 3109 3109 3109 3109 3109 3109 3109 3109 3110 3110 3110 3110 3111 3111 3112 3112 3113 3115 3117 3118 3120 3122 3123 3124 3124 3125 3127 3128 3129 3130 3131 3131 3132 3132 3133 3133 3133 3133 3132 3132 3132 3132 3132 3133 3133 3134 3135 3136 3136 3137 3137 3137 3137 3137 3137 3138 3138 3137 3137 3135 3135 3135 3136 3137 3138 3139 3139 3140 3140 3140 3140 3140 3140 3141
3110 3109 3109 3109 3108 3108 3108 3107 3107 3106 3106 3105 3106 3106 3107 3107 3107 3107 3107 3107 3107 3108 3108 3108 3108 3108 3109 3109 3110 3111 3112 3113 3115 3117 3119 3121 3121 3122 3123 3125 3127 3127 3128 3129 3130 3130 3131 3131 3131 3131 3131 3131 3131 3131 3131 3131 3131 3132 3133 3133 3134 3135 3135 3136 3136 3135 3136 3136 3137 3137 3137 3136 3135 3134 3134 3135 3136 3137 3138 3138 3138 3138 3139 3139 3139 3140 3140
3106 3106 3106 3106 3106 3105 3105 3105 3104 3104 3103 3103 3103 3104 3105 3105 3105 3105 3105 3105 3105 3106 3106 3106 3106 3106 3107 3107 3108 3108 3110 3111 3112 3114 3116 3117 3118 3119 3121 3123 3124 3125 3126 3127 3128 3129 3129 3130 3130 3130 3130 3130 3130 3130 3130 3130 3130 3130 3131 3132 3132 3133 3133 3134 3134 3134 3134 3135 3135 3135 3135 3135 3135 3134 3134 3135 3136 3137 3137 3138 3137 3137 3138 3138 3138 3139 3139
3103 3103 3103 3103 3103 3103 3103 3102 3102 3101 3101 3101 3101 3101 3102 3103 3103 3103 3103 3103 3103 3104 3104 3103 3103 3104 3105 3106 3106 3106 3107 3108 3109 3111 3113 3114 3115 3117 3118 3120 3122 3123 3124 3125 3126 3127 3127 3128 3128 3128 3128 3129 3129 3129 3129 3129 3129 3129 3130 3130 3131 3131 3131 3132 3132 3132 3133 3133 3133 3133 3134 3134 3134 3133 3134 3134 3135 3135 3136 3136 3136 3136 3137 3137 3137 3138 3138
3100 3100 3101 3100 3100 3100 3100 3100 3099 3099 3099 3098 3098 3099 3100 3100 3100 3100 3101 3101 3101 3102 3102 3101 3101 3102 3103 3103 3104 3104 3105 3106 3107 3108 3110 3110 3112 3115 3117 3119 3120 3121 3122 3124 3124 3125 3125 3126 3126 3127 3127 3127 3128 3128 3128 3128 3128 3128 3129 3129 3129 3130 3130 3130 3130 3131 3131 3132 3132 3132 3132 3132 3132 3132 3132 3133 3134 3134 3134 3135 3135 3135 3135 3135 3135 3136 3137
3097 3097 3098 3098 3098 3097 3097 3097 3097 3097 3097 3096 3096 3096 3097 3098 3098 3098 3098 3098 3098 3099 3099 3098 3098 3099 3100 3101 3102 3102 3103 3104 3105 3106 3107 3107 3109 3112 3115 3116 3118 3119 3120 3122 3122 3123 3123 3124 3124 3125 3125 3126 3127 3127 3127 3127 3127 3127 3128 3128 3128 3129 3129 3129 3129 3129 3130 3130 3131 3131 3130 3130 3131 3131 3131 3131 3131 3132 3133 3134 3134 3134 3134 3134 3134 3135 3136
3094 3094 3095 3095 3095 3095 3095 3095 3095 3095 3095 3094 3094 3094 3095 3095 3096 3096 3096 3096 3095 3096 3096 3096 3096 3097 3097 3098 3100 3100 3101 3102 3103 3104 3105 3106 3107 3109 3111 3114 3116 3117 3118 3119 3120 3121 3121 3122 3122 3123 3123 3124 3125 3125 3126 3126 3126 3126 3126 3127 3127 3127 3128 3127 3128 3128 3128 3128 3129 3129 3128 3129 3129 3129 3129 3129 3130 3131 3131 3132 3133 3133 3132 3132 3133 3134 3135
3091 3091 3092 3092 3092 3093 3093 3093 3093 3093 3093 3093 3092 3092 3093 3093 3094 3094 3094 3093 3093 3093 3093 3093 3093 3094 3094 3096 3097 3098 3099 3100 3101 3102 3103 3104 3105 3107 3109 3111 3114 3115 3117 3118 3118 3119 3119 3120 3121 3121 3122 3122 3123 3124 3124 3125 3125 3125 3125 3126 3126 3126 3126 3126 3126 3127 3127 3127 3127 3127 3127 3127 3128 3128 3128 3128 3128 3129 3130 3131 3131 3131 3131 3131 3132 3133 3134
3088 3088 3089 3089 3090 3090 3091 3091 3091 3091 3091 3091 3091 3091 3091 3091 3091 3092 3091 3091 3091 3090 3090 3090 3090 3091 3092 3093 3094 3095 3097 3098 3099 3100 3102 3103 3104 3106 3108 3110 3112 3113 3115 3116 3117 3117 3118 3119 3119 3119 3120 3121 3121 3122 3123 3123 3123 3124 3124 3125 3125 3125 3125 3125 3125 3125 3125 3125 3126 3126 3126 3126 3126 3126 3126 3126 3127 3127 3128 3129 3130 3130 3130 3130 3131 3132 3133
3085 3086 3086 3087 3088 3088 3088 3089 3089 3089 3089 3089 3089 3089 3089 3089 3089 3089 3089 3089 3088 3088 3087 3087 3087 3088 3089 3090 3091 3093 3094 3096 3098 3099 3100 3102 3104 3105 3107 3109 3110 3111 3113 3114 3116 3116 3117 3117 3118 3118 3119 3119 3120 3121 3121 3121 3122 3123 3123 3123 3124 3124 3124 3124 3124 3124 3124 3124 3124 3124 3124 3124 3125 3125 3125 3125 3126 3126 3126 3126 3127 3129 3129 3129 3129 3130 3132
3082 3083 3084 3084 3085 3086 3086 3087 3087 3087 3087 3087 3087 3087 3087 3087 3087 3087 3087 3087 3086 3085 3085 3085 3085 3085 3086 3087 3089 3090 3092 3094 3096 3097 3099 3101 3103 3104 3105 3106 3107 3109 3111 3112 3113 3114 3115 3115 3116 3117 3117 3118 3118 3119 3120 3120 3121 3121 3121 3122 3123 3123 3123 3123 3123 3123 3123 3123 3123 3123 3123 3123 3123 3124 3124 3124 3125 3126 3126 3125 3124 3126 3127 3128 3128 3129 3131
3079 3080 3081 3082 3083 3084 3084 3085 3085 3085 3085 3085 3085 3085 3085 3085 3085 3085 3085 3085 3084 3083 3082 3082 3082 3082 3083 3085 3087 3088 3089 3091 3094 3095 3097 3099 3101 3102 3103 3104 3105 3106 3108 3110 3111 3112 3113 3114 3115 3116 3116 3117 3117 3118 3119 3119 3119 3120 3120 3121 3122 3122 3122 3122 3122 3122 3122 3122 3122 3122 3122 3122 3122 3122 3122 3123 3123 3126 3127 3125 3123 3122 3123 3124 3126 3128 3131
3077 3078 3079 3080 3081 3081 3082 3083 3083 3083 3083 3083 3083 3083 3083 3083 3083 3083 3083 3083 3082 3082 3081 3081 3080 3081 3082 3084 3085 3086 3088 3090 3091 3093 3095 3097 3099 3100 3102 3103 3104 3104 3106 3108 3109 3110 3111 3112 3114 3115 3116 3116 3116 3117 3117 3118 3118 3119 3119 3120 3121 3121 3122 3122 3122 3122 3122 3121 3121 3121 3121 3121 3121 3120 3121 3122 3122 3124 3126 3126 3124 3123 3123 3122 3122 3124 3129
3075 3075 3076 3078 3079 3079 3080 3081 3081 3081 3081 3081 3081 3081 3081 3081 3081 3081 3081 3081 3081 3080 3080 3080 3080 3080 3081 3082 3083 3084 3086 3088 3089 3091 3093 3095 3097 3098 3100 3102 3102 3103 3104 3106 3107 3108 3109 3110 3112 3114 3115 3115 3116 3116 3116 3117 3117 3117 3118 3119 3120 3121 3121 3121 3121 3121 3121 3120 3121 3121 3121 3121 3120 3120 3120 3120 3120 3122 3125 3126 3125 3126 3128 3127 3125 3125 3127
3072 3073 3074 3075 3076 3077 3078 3079 3079 3079 3079 3079 3079 3079 3079 3079 3078 3078 3079 3079 3079 3078 3078 3078 3078 3079 3080 3081 3082 3083 3084 3086 3087 3090 3092 3094 3095 3097 3098 3100 3101 3102 3103 3104 3105 3106 3108 3109 3111 3113 3114 3114 3114 3115 3115 3115 3115 3116 3117 3119 3120 3120 3121 3121 3121 3121 3121 3120 3120 3121 3121 3121 3120 3120 3120 3120 3121 3123 3125 3126 3126 3128 3130 3131 3131 3130 3130
3070 3071 3072 3073 3074 3075 3076 3076 3077 3077 3077 3077 3077 3077 3076 3076 3076 3076 3076 3076 3076 3076 3076 3076 3077 3078 3079 3079 3080 3081 3083 3084 3086 3088 3090 3092 3094 3095 3097 3098 3099 3100 3101 3102 3103 3105 3106 3108 3110 3112 3112 3113 3113 3113 3113 3113 3114 3115 3116 3118 3119 3120 3120 3121 3121 3121 3121 3121 3121 3121 3121 3121 3120 3120 3121 3121 3122 3124 3125 3127 3128 3129 3131 3133 3134 3135 3134
3068 3069 3070 3071 3072 3073 3074 3074 3075 3075 3075 3075 3074 3074 3074 3073 3074 3074 3074 3074 3074 3074 3074 3075 3075 3076 3077 3078 3079 3080 3081 3083 3084 3086 3088 3090 3092 3094 3095 3096 3097 3099 3100 3101 3102 3103 3105 3107 3109 3110 3111 3111 3111 3111 3111 3112 3112 3113 3115 3116 3118 3119 3120 3120 3121 3121 3121 3121 3121 3121 3121 3122 3122 3122 3123 3123 3124 3125 3127 3128 3129 3130 3131 3133 3135 3136 3136
3065 3067 3068 3069 3070 3071 3072 3072 3072 3073 3073 3072 3072 3071 3071 3071 3071 3071 3072 3072 3072 3072 3072 3073 3074 3075 3076 3077 3077 3078 3080 3081 3082 3084 3086 3088 3090 3091 3093 3094 3096 3097 3099 3101 3102 3102 3103 3105 3107 3108 3109 3109 3109 3109 3109 3110 3110 3112 3114 3115 3117 3118 3119 3119 3120 3121 3121 3122 3122 3122 3122 3122 3123 3123 3124 3125 3127 3128 3129 3130 3131 3131 3133 3134 3135 3136 3136
3063 3064 3066 3067 3068 3069 3069 3070 3070 3070 3070 3070 3069 3069 3069 3069 3069 3069 3070 3070 3070 3070 3071 3071 3072 3073 3074 3075 3076 3077 3079 3080 3081 3083 3084 3085 3087 3089 3091 3093 3094 3096 3098 3100 3100 3100 3101 3103 3104 3106 3107 3107 3107 3107 3107 3108 3109 3111 3112 3114 3115 3116 3118 3119 3119 3120 3121 3122 3122 3122 3122 3123 3123 3124 3125 3126 3127 3129 3130 3131 3132 3132 3133 3134 3135 3136 3136
3061 3062 3064 3065 3066 3066 3067 3068 3068 3068 3068 3068 3068 3067 3067 3068 3067 3067 3068 3068 3068 3069 3069 3070 3071 3072 3073 3074 3075 3076 3077 3078 3080 3081 3082 3083 3085 3087 3089 3090 3092 3094 3095 3096 3098 3099 3100 3102 3103 3104 3105 3105 3105 3105 3105 3106 3107 3109 3111 3112 3114 3115 3116 3118 3119 3120 3121 3122 3122 3122 3123 3123 3123 3124 3125 3126 3127 3128 3129 3130 3131 3132 3133 3134 3135 3136 3136
3059 3060 3062 3063 3064 3064 3065 3066 3066 3066 3066 3066 3066 3066 3066 3066 3066 3066 3066 3066 3067 3067 3068 3069 3070 3071 3072 3073 3074 3075 3076 3077 3079 3080 3081 3082 3084 3085 3087 3088 3090 3091 3093 3094 3096 3097 3099 3100 3101 3101 3103 3103 3102 3103 3104 3105 3106 3107 3109 3111 3112 3114 3115 3116 3117 3118 3120 3121 3122 3122 3123 3123 3124 3124 3125 3126 3126 3127 3128 3129 3131 3132 3132 3133 3134 3135 3136
3057 3058 3060 3061 3062 3063 3063 3064 3064 3065 3065 3065 3065 3064 3064 3064 3065 3065 3065 3065 3066 3066 3067 3067 3068 3070 3071 3072 3073 3074 3075 3076 3077 3079 3080 3081 3083 3084 3085 3086 3087 3088 3090 3092 3094 3095 3096 3097 3098 3099 3100 3100 3100 3101 3103 3104 3105 3106 3108 3110 3111 3113 3114 3115 3117 3118 3119 3120 3121 3122 3123 3123 3124 3124 3125 3125 3126 3127 3128 3129 3130 3131 3132 3133 3133 3134 3135
3055 3056 3058 3059 3060 3061 3061 3062 3063 3063 3064 3064 3064 3063 3063 3063 3063 3063 3064 3064 3065 3065 3066 3066 3067 3069 3070 3071 3072 3073 3074 3074 3076 3077 3079 3080 3081 3083 3084 3085 3086 3087 3089 3090 3091 3093 3094 3095 3095 3096 3096 3097 3099 3100 3102 3103 3104 3105 3107 3108 3110 3112 3113 3114 3115 3117 3118 3119 3120 3121 3122 3123 3124 3124 3125 3125 3126 3127 3128 3129 3130 3130 3131 3131 3132 3133 3134
3053 3055 3056 3057 3058 3059 3060 3061 3061 3062 3062 3062 3062 3062 3062 3062 3062 3062 3063 3063 3063 3064 3064 3065 3066 3068 3068 3069 3071 3072 3072 3073 3075 3076 3077 3078 3080 3081 3083 3084 3085 3086 3088 3089 3089 3090 3092 3092 3093 3093 3094 3095 3097 3099 3100 3101 3102 3104 3105 3107 3109 3110 3112 3113 3114 3115 3116 3118 3119 3120 3121 3122 3123 3124 3125 3125 3126 3127 3128 3129 3130 3130 3131 3131 3132 3132 3133
3051 3053 3054 3056 3057 3058 3059 3059 3060 3060 3061 3061 3061 3061 3061 3061 3061 3062 3062 3062 3062 3062 3063 3064 3065 3066 3067 3068 3070 3071 3071 3073 3074 3075 3075 3077 3078 3079 3081 3082 3083 3084 3086 3086 3087 3088 3089 3090 3091 3091 3091 3093 3095 3097 3098 3099 3101 3102 3104 3106 3107 3109 3110 3112 3113 3114 3115 3116 3118 3119 3120 3121 3122 3124 3124 3125 3126 3127 3128 3129 3129 3130 3131 3131 3132 3132 3133
3050 3051 3053 3054 3055 3056 3057 3058 3059 3059 3060 3060 3060 3060 3060 3060 3061 3061 3060 3060 3061 3061 3062 3063 3064 3065 3066 3067 3068 3069 3070 3072 3073 3073 3074 3075 3076 3077 3079 3080 3081 3083 3083 3083 3084 3086 3087 3087 3088 3087 3088 3090 3093 3095 3097 3098 3099 3101 3102 3104 3106 3107 3109 3110 3111 3113 3114 3115 3116 3117 3119 3120 3121 3122 3123 3125 3126 3127 3127 3128 3129 3129 3130 3131 3132 3132 3133
3049 3050 3052 3053 3054 3055 3056 3057 3057 3058 3059 3059 3059 3059 3059 3059 3059 3059 3059 3059 3060 3060 3061 3062 3063 3064 3065 3066 3067 3068 3069 3070 3071 3072 3073 3074 3075 3076 3078 3079 3080 3081 3081 3081 3082 3083 3083 3084 3083 3083 3085 3088 3092 3094 3095 3096 3097 3099 3100 3102 3104 3105 3107 3108 3109 3111 3112 3114 3115 3116 3117 3118 3120 3121 3122 3123 3125 3126 3126 3127 3128 3129 3130 3131 3132 3132 3133
3048 3049 3051 3052 3053 3054 3055 3056 3056 3057 3057 3057 3057 3058 3058 3058 3058 3058 3058 3059 3059 3060 3060 3061 3062 3063 3063 3064 3065 3066 3068 3069 3070 3071 3072 3073 3074 3075 3076 3076 3077 3078 3078 3079 3080 3080 3080 3079 3078 3079 3082 3087 3090 3091 3093 3094 3096 3097 3099 3100 3102 3103 3105 3106 3108 3109 3111 3112 3113 3114 3116 3117 3118 3120 3121 3122 3123 3125 3126 3127 3127 3128 3129 3130 3131 3132 3133
3047 3048 3049 3051 3052 3053 3054 3054 3055 3056 3056 3056 3056 3056 3056 3056 3056 3057 3057 3058 3058 3059 3060 3060 3061 3062 3062 3063 3064 3065 3066 3068 3069 3070 3071 3072 3073 3074 3074 3074 3075 3075 3076 3076 3077 3076 3076 3075 3075 3077 3081 3085 3087 3089 3091 3093 3094 3096 3097 3099 3100 3102 3104 3105 3106 3108 3109 3110 3111 3113 3115 3116 3117 3119 3120 3121 3122 3124 3125 3125 3126 3127 3128 3129 3130 3131 3132
3046 3047 3048 3050 3051 3052 3052 3053 3054 3054 3054 3054 3054 3054 3054 3055 3055 3056 3057 3057 3058 3058 3059 3059 3060 3061 3061 3062 3063 3064 3066 3067 3068 3069 3070 3071 3071 3072 3072 3073 3073 3073 3074 3074 3074 3073 3073 3073 3074 3077 3080 3083 3084 3087 3089 3091 3092 3094 3096 3097 3099 3101 3102 3103 3105 3106 3107 3109 3110 3112 3113 3115 3116 3117 3119 3120 3121 3122 3123 3124 3125 3126 3127 3128 3129 3130 3131
3045 3046 3047 3048 3049 3050 3051 3052 3052 3052 3052 3053 3053 3053 3054 3054 3055 3055 3056 3056 3057 3057 3058 3059 3060 3060 3061 3061 3062 3063 3065 3066 3067 3068 3069 3070 3070 3070 3071 3071 3071 3071 3072 3072 3072 3071 3071 3072 3074 3076 3079 3081 3083 3085 3087 3089 3091 3093 3094 3096 3097 3099 3101 3102 3103 3105 3106 3108 3109 3111 3112 3113 3115 3116 3117 3119 3120 3121 3122 3123 3124 3125 3125 3126 3127 3128 3129
3044 3045 3046 3047 3048 3048 3049 3050 3050 3051 3051 3051 3052 3052 3053 3053 3054 3055 3056 3056 3056 3057 3058 3059 3059 3059 3060 3060 3061 3062 3064 3065 3066 3067 3068 3068 3068 3068 3069 3069 3070 3070 3071 3071 3070 3070 3070 3072 3074 3076 3078 3079 3081 3083 3085 3087 3089 3091 3092 3094 3096 3098 3099 3101 3102 3103 3105 3106 3108 3109 3110 3112 3113 3114 3116 3117 3118 3119 3120 3121 3122 3123 3124 3125 3125 3126 3126
3043 3044 3045 3045 3046 3047 3048 3049 3049 3050 3050 3050 3051 3051 3051 3052 3053 3054 3055 3056 3056 3056 3057 3058 3058 3059 3059 3060 3061 3062 3063 3065 3066 3066 3067 3067 3067 3067 3067 3068 3069 3069 3069 3069 3069 3069 3070 3072 3073 3075 3076 3077 3079 3081 3083 3085 3087 3089 3091 3092 3094 3096 3098 3099 3100 3102 3103 3105 3106 3107 3109 3110 3111 3113 3114 3115 3117 3118 3119 3120 3121 3121 3122 3123 3123 3124 3124
3041 3042 3043 3044 3045 3045 3046 3047 3048 3049 3049 3049 3050 3050 3051 3051 3053 3054 3054 3055 3056 3056 3056 3057 3058 3058 3059 3059 3060 3062 3063 3064 3065 3066 3066 3067 3067 3067 3067 3067 3068 3068 3068 3068 3068 3069 3070 3071 3072 3073 3074 3075 3077 3079 3081 3083 3085 3087 3089 3090 3092 3094 3096 3097 3099 3100 3102 3103 3104 3106 3107 3108 3110 3111 3113 3114 3115 3116 3117 3118 3119 3120 3120 3121 3122 3122 3123
3040 3041 3042 3043 3043 3044 3045 3046 3046 3047 3048 3049 3049 3049 3050 3051 3052 3053 3053 3054 3055 3055 3055 3056 3057 3058 3058 3059 3060 3061 3062 3063 3064 3065 3065 3066 3066 3066 3066 3066 3066 3067 3067 3068 3068 3068 3069 3069 3070 3071 3072 3074 3076 3077 3079 3081 3083 3085 3087 3089 3091 3092 3094 3096 3097 3099 3100 3101 3103 3104 3105 3107 3108 3110 3111 3112 3113 3114 3115 3116 3117 3118 3118 3119 3120 3120 3120
3039 3040 3041 3042 3043 3043 3044 3045 3045 3046 3047 3047 3048 3048 3049 3050 3051 3051 3052 3053 3054 3055 3055 3056 3057 3057 3058 3059 3060 3061 3062 3063 3064 3064 3064 3065 3066 3066 3066 3065 3066 3066 3067 3067 3068 3068 3068 3068 3069 3070 3071 3073 3075 3076 3078 3080 3082 3084 3086 3087 3089 3091 3092 3094 3095 3097 3098 3100 3101 3102 3104 3105 3107 3108 3109 3111 3112 3112 3113 3114 3115 3116 3116 3117 3117 3118 3118
3037 3038 3039 3041 3042 3042 3043 3043 3044 3045 3045 3046 3047 3047 3048 3048 3049 3050 3051 3052 3053 3054 3055 3055 3056 3057 3058 3059 3059 3060 3061 3062 3063 3063 3063 3064 3065 3065 3065 3065 3065 3066 3067 3067 3067 3067 3067 3068 3069 3070 3071 3072 3074 3075 3077 3079 3080 3082 3084 3085 3087 3089 3091 3093 3094 3095 3096 3098 3099 3101 3102 3104 3105 3106 3108 3109 3110 3111 3112 3112 3113 3113 3114 3114 3114 3115 3115
3036 3037 3038 3039 3040 3041 3041 3042 3043 3044 3044 3045 3045 3046 3047 3047 3048 3049 3050 3051 3052 3053 3054 3054 3055 3056 3057 3058 3059 3060 3060 3061 3061 3062 3062 3063 3063 3064 3064 3065 3065 3066 3066 3066 3067 3067 3067 3067 3068 3069 3070 3071 3073 3074 3076 3077 3079 3080 3082 3083 3085 3086 3088 3090 3092 3093 3095 3096 3098 3099 3101 3102 3103 3105 3106 3107 3108 3109 3110 3110 3110 3110 3111 3111 3112 3112 3112